SCP
-0 0 0 0 0 0 0 0 0 0 0 -0 -0 0 0 0 0 0 0 0 0 0 0 0 0 0 0 0 0 0 0 0 0 0 0 0 0 0
0 -0 -0 0 0 0 0 0 0 0 0 -0 0 0 0 0 0 0 0 0 0 0 0 0 0 0 0 0 0 0 0 0 0 0 0 0 0 0
0 0 0 0 0 -0 -0 0 0 0 -0 0 -0 -0 -0 0 0 0 0 0 0 0 0 0 0 0 0 0 0 0 0 0 0 0 0 0 0 0
0 0 -0 0 -0 0 0 0 0 0 0 -0 -0 -0 0 0 0 0 0 0 0 0 0 0 0 0 0 0 0 0 0 0 0 0 0 0 0 0
0 0 0 0 0 0 0 0 0 -0 0 -0 -0 -0 0 -0 -0 0 0 1 0 0 0 0 0 0 0 0 0 0 0 0 0 0 0 0 0 0
0 0 0 0 0 0 0 0 0 -0 -0 -0 -0 0 0 0 0 0 0 1 1 1 0 0 0 0 0 0 0 0 0 0 0 0 0 0 0 0
-0 -0 0 -0 0 0 -0 -0 -0 -0 -0 0 0 0 0 1 1 1 1 1 2 1 1 1 1 0 0 0 0 0 0 0 0 0 0 0 0 0
-0 -0 -0 -0 0 0 -0 -0 -0 0 -0 0 0 0 1 1 1 1 2 2 2 2 2 1 0 0 0 0 0 0 0 0 0 0 0 0 0 -0
-0 -0 0 0 0 0 0 -0 -0 -0 -0 -0 -0 0 0 1 2 3 3 4 4 3 1 0 1 0 0 0 0 0 0 0 -0 0 0 0 -0 0
0 -0 0 0 0 0 0 0 0 0 0 0 0 0 1 1 2 2 3 3 3 3 1 0 1 1 0 0 0 0 0 0 -0 0 0 0 -0 -0
0 0 -0 -0 0 0 0 0 0 -0 0 0 0 0 0 0 0 1 1 2 2 3 1 0 0 0 0 0 0 0 0 0 0 0 0 0 -0 -0
-0 -0 0 0 0 0 0 0 -0 0 0 0 1 1 1 1 0 0 1 2 2 2 1 0 0 0 0 0 0 0 0 0 -0 -0 -0 -0 -0 -0
-0 -0 0 0 0 0 0 0 0 0 0 1 2 3 3 3 2 3 4 4 2 3 0 0 0 0 0 0 0 0 0 0 0 -0 0 -0 0 0
0 0 0 1 0 0 0 0 0 0 1 2 2 2 2 2 2 3 3 3 2 1 0 0 0 0 0 0 0 0 0 0 -0 -0 -0 -0 -0 -0
-0 -0 0 1 0 0 0 0 0 0 1 1 2 1 1 2 2 2 1 0 0 0 0 0 0 0 0 0 0 0 0 -0 -0 -0 -0 -0 0 0
0 0 1 1 1 1 1 0 0 1 2 2 2 2 2 2 1 1 0 0 0 0 0 0 0 0 0 0 0 0 -0 0 -0 -0 0 0 0 0
1 1 1 1 1 2 2 2 2 1 1 1 1 2 1 1 1 0 0 0 0 0 0 0 0 0 0 0 0 0 0 0 0 0 0 0 0 0
2 3 3 2 2 2 2 2 2 1 1 1 1 1 1 1 0 0 0 0 0 0 0 0 0 0 0 0 0 0 0 0 0 0 0 0 0 0
4 4 4 3 3 3 2 2 2 1 1 1 1 1 1 0 0 0 0 0 0 0 0 0 0 0 0 0 0 0 0 0 0 0 0 0 0 0
3 4 3 3 3 3 3 2 1 1 1 1 1 0 0 0 0 0 0 0 0 0 0 0 0 0 0 0 0 0 0 0 0 0 0 0 0 0
4 3 4 4 3 2 2 1 1 0 1 2 1 0 0 0 0 0 0 0 0 0 0 0 0 0 0 0 0 0 0 0 0 0 0 0 0 0
5 3 2 2 2 1 1 1 1 0 1 1 0 0 0 0 0 0 0 0 0 0 0 0 0 0 0 0 0 0 0 0 0 0 0 0 0 0
4 3 3 2 1 1 1 1 1 0 0 0 0 0 0 0 0 0 0 0 0 0 0 0 0 0 0 0 0 0 0 0 0 0 0 0 0 0
Wind_Speed_500mb
23 25 25 25 26 28 26 25 23 24 28 18 21 21 23 23 24 27 30 32 34 39 39 38 38 39 37 35 35 35 32 30 26 24 23 21 18 17
25 26 28 28 27 28 30 33 35 36 34 26 32 38 34 35 35 35 39 42 45 46 50 53 50 47 47 46 45 42 39 38 30 27 24 21 17 14
31 29 28 29 31 32 32 34 37 39 47 46 45 49 46 47 47 51 52 55 57 55 53 57 60 63 61 58 54 52 48 40 35 32 24 25 20 15
36 37 35 35 34 35 38 41 43 44 48 58 57 59 64 63 64 64 63 65 70 70 67 64 64 68 75 72 65 60 51 48 41 43 39 34 26 20
38 37 36 39 41 39 40 44 48 52 57 63 71 69 73 77 80 78 76 72 72 72 69 67 68 71 73 77 79 68 62 61 64 55 51 40 28 24
45 44 42 41 43 41 42 43 45 49 54 61 65 62 63 67 70 73 76 75 74 67 70 68 65 66 67 71 75 80 80 80 72 61 40 56 36 26
57 54 51 46 43 42 45 47 48 53 56 51 56 58 56 52 54 53 61 73 80 70 64 68 65 61 55 54 75 76 92 91 82 65 36 37 44 30
65 61 58 56 54 52 52 53 55 61 67 72 73 66 85 66 59 57 63 66 75 54 57 77 77 74 65 61 55 67 78 93 84 69 37 41 44 32
72 70 69 69 65 62 62 63 67 70 72 76 87 89 88 76 71 71 67 68 72 73 76 81 73 63 65 55 49 49 65 67 65 40 26 44 41 33
80 77 76 74 73 71 70 74 76 77 76 75 79 82 76 65 49 57 64 68 73 73 70 73 71 61 56 61 57 45 47 66 61 34 28 42 40 33
73 74 76 75 72 70 73 75 75 77 73 73 71 66 57 41 46 53 59 68 80 74 60 49 74 46 53 45 34 23 48 40 24 36 42 42 39 35
70 71 71 71 67 64 65 66 74 71 65 61 57 46 37 40 41 48 59 66 65 70 56 52 35 33 6 14 22 30 34 23 16 40 43 34 39 36
68 67 65 62 55 55 55 60 66 56 53 49 49 47 43 42 45 44 51 54 55 49 46 43 38 25 13 24 15 18 16 35 47 46 33 38 36 25
63 60 58 53 48 47 49 53 52 47 47 47 49 48 48 50 53 48 50 51 47 41 37 32 18 10 18 19 21 24 36 39 45 40 46 44 38 30
62 62 61 55 50 52 52 50 43 49 51 51 48 45 47 45 48 53 58 58 40 21 11 4 1 16 10 17 23 45 46 43 47 49 46 41 35 31
60 62 58 58 57 54 49 48 52 53 53 53 48 48 52 49 53 54 54 39 10 3 9 18 14 7 18 16 29 42 48 45 52 49 45 41 35 33
44 52 57 58 58 57 58 57 55 58 59 55 52 51 46 50 53 49 35 14 7 14 17 16 17 19 25 25 34 39 42 42 52 48 43 41 40 36
47 54 58 53 51 53 52 52 52 53 52 50 45 45 47 50 46 33 20 15 17 23 18 19 23 32 39 28 36 41 41 42 47 43 40 34 38 35
55 54 50 48 47 47 49 49 47 46 45 43 45 46 46 46 36 30 23 19 24 30 24 21 33 39 33 29 45 48 46 43 39 46 40 29 24 33
56 52 46 44 44 46 46 45 45 43 43 45 44 45 42 38 34 33 28 27 31 31 26 34 34 35 33 33 40 55 48 47 43 43 42 45 39 29
53 49 44 48 48 48 47 48 47 45 44 43 43 42 39 37 35 33 30 31 37 40 38 45 37 38 45 43 39 47 52 45 37 35 36 36 33 30
58 54 52 51 50 47 43 40 43 43 43 45 43 41 39 39 39 35 33 36 41 35 39 44 43 43 47 35 30 34 45 47 42 36 35 33 30 22
61 55 53 54 48 43 40 39 42 43 44 44 43 41 39 41 41 38 33 36 40 33 39 42 46 50 37 34 31 29 35 41 47 46 48 40 35 30
Wind_Direction_500mb
262 259 265 268 271 272 276 283 289 298 305 290 305 313 315 309 298 294 291 293 285 279 277 279 275 273 269 268 265 262 262 265 269 283 300 309 300 296
264 266 265 267 274 275 271 276 283 285 283 291 294 305 306 303 300 297 293 288 285 281 277 274 270 269 271 269 266 261 256 258 263 269 283 291 291 293
261 268 271 272 270 272 273 277 282 286 286 290 293 298 296 296 295 295 293 292 291 288 283 277 273 267 264 261 256 256 255 254 258 261 267 279 277 269
262 267 271 274 275 274 274 278 282 286 287 290 292 294 297 300 299 297 295 294 293 291 290 284 277 272 264 260 260 256 251 250 248 253 254 255 264 256
257 263 270 272 268 269 275 276 279 280 283 284 289 291 293 297 301 302 302 302 300 301 298 293 286 279 274 267 259 254 251 244 238 243 255 249 243 245
253 258 263 264 264 265 269 274 277 281 285 286 288 291 294 298 296 300 302 305 303 304 305 303 294 283 268 263 262 253 245 241 240 236 264 248 234 225
253 256 258 257 260 264 269 273 278 282 286 285 286 289 289 291 292 296 296 305 306 309 311 312 305 302 295 278 263 258 252 238 231 233 253 258 234 215
256 257 259 261 259 261 264 267 273 281 284 286 285 283 290 294 297 298 296 299 303 310 307 312 312 318 317 307 297 280 261 249 223 221 241 259 221 207
258 260 261 262 263 264 266 269 271 273 276 280 281 283 290 295 305 302 304 304 305 308 310 311 318 316 320 314 309 298 285 241 203 216 228 207 203 201
259 261 261 262 263 266 269 272 274 276 275 274 278 286 291 298 293 297 301 301 303 307 315 308 322 322 322 322 311 309 283 207 190 214 202 199 200 196
259 260 262 263 262 264 267 270 273 275 277 278 280 282 285 283 286 292 296 304 307 309 317 306 323 314 318 319 308 279 183 165 195 212 192 191 196 190
255 256 257 259 262 264 264 267 269 272 278 281 282 276 270 275 279 288 294 296 304 311 313 317 305 326 335 91 115 151 177 225 163 177 184 196 185 189
253 255 256 259 260 260 260 260 264 274 273 270 270 276 282 281 282 283 290 293 298 301 308 307 315 323 192 169 172 182 201 165 173 175 187 181 184 197
251 255 257 258 258 256 255 258 260 262 258 260 267 274 280 289 297 296 295 292 296 293 295 294 302 319 175 159 163 165 161 164 171 176 175 176 188 201
250 254 257 258 255 253 251 254 254 253 258 263 271 279 288 285 289 290 293 300 306 305 266 260 81 164 206 192 188 171 161 165 168 175 177 187 196 206
247 251 255 257 257 257 255 248 250 253 255 263 267 268 277 282 286 291 297 298 291 202 158 153 162 203 182 164 171 169 175 165 175 180 186 191 201 215
251 250 250 252 255 257 259 260 256 257 256 260 263 267 270 276 282 289 286 240 176 176 177 183 185 174 161 161 162 165 166 177 180 193 196 201 208 217
241 245 250 253 258 261 260 259 256 253 253 253 251 257 265 272 277 272 234 213 189 187 187 201 188 163 164 178 173 173 173 185 198 195 202 211 219 225
236 244 253 259 260 259 261 257 253 250 246 242 248 253 261 266 259 244 222 210 203 200 210 198 184 173 165 167 187 190 193 196 200 204 206 207 219 231
235 241 246 253 259 261 257 254 252 249 243 247 244 253 256 250 245 224 224 223 206 203 199 193 185 185 185 184 179 193 200 204 209 210 211 218 224 243
241 244 249 257 262 262 259 254 251 248 244 238 246 249 241 241 227 219 234 218 205 203 200 194 194 192 191 191 183 195 201 210 217 231 230 218 225 238
241 242 244 250 255 257 255 247 241 237 236 244 243 237 239 236 221 225 221 206 198 205 204 195 196 196 199 192 191 195 210 215 214 214 213 219 231 238
234 240 245 248 246 243 247 245 244 245 243 237 236 238 238 232 218 217 216 210 202 188 184 193 195 195 195 195 197 199 207 214 213 207 210 218 226 240
Wind_Speed_850mb
23 25 25 25 26 28 26 25 23 24 28 18 21 21 23 23 24 27 30 32 34 39 39 38 38 39 37 35 35 35 32 30 26 24 23 21 18 17
25 26 28 28 27 28 30 33 35 36 34 26 32 38 34 35 35 35 39 42 45 46 50 53 50 47 47 46 45 42 39 38 30 27 24 21 17 14
31 29 28 29 31 32 32 34 37 39 47 46 45 49 46 47 47 51 52 55 57 55 53 57 60 63 61 58 54 52 48 40 35 32 24 25 20 15
36 37 35 35 34 35 38 41 43 44 48 58 57 59 64 63 64 64 63 65 70 70 67 64 64 68 75 72 65 60 51 48 41 43 39 34 26 20
38 37 36 39 41 39 40 44 48 52 57 63 71 69 73 77 80 78 76 72 72 72 69 67 68 71 73 77 79 68 62 61 64 55 51 40 28 24
45 44 42 41 43 41 42 43 45 49 54 61 65 62 63 67 70 73 76 75 74 67 70 68 65 66 67 71 75 80 80 80 72 61 40 56 36 26
57 54 51 46 43 42 45 47 48 53 56 51 56 58 56 52 54 53 61 73 80 70 64 68 65 61 55 54 75 76 92 91 82 65 36 37 44 30
65 61 58 56 54 52 52 53 55 61 67 72 73 66 85 66 59 57 63 66 75 54 57 77 77 74 65 61 55 67 78 93 84 69 37 41 44 32
72 70 69 69 65 62 62 63 67 70 72 76 87 89 88 76 71 71 67 68 72 73 76 81 73 63 65 55 49 49 65 67 65 40 26 44 41 33
80 77 76 74 73 71 70 74 76 77 76 75 79 82 76 65 49 57 64 68 73 73 70 73 71 61 56 61 57 45 47 66 61 34 28 42 40 33
73 74 76 75 72 70 73 75 75 77 73 73 71 66 57 41 46 53 59 68 80 74 60 49 74 46 53 45 34 23 48 40 24 36 42 42 39 35
70 71 71 71 67 64 65 66 74 71 65 61 57 46 37 40 41 48 59 66 65 70 56 52 35 33 6 14 22 30 34 23 16 40 43 34 39 36
68 67 65 62 55 55 55 60 66 56 53 49 49 47 43 42 45 44 51 54 55 49 46 43 38 25 13 24 15 18 16 35 47 46 33 38 36 25
63 60 58 53 48 47 49 53 52 47 47 47 49 48 48 50 53 48 50 51 47 41 37 32 18 10 18 19 21 24 36 39 45 40 46 44 38 30
62 62 61 55 50 52 52 50 43 49 51 51 48 45 47 45 48 53 58 58 40 21 11 4 1 16 10 17 23 45 46 43 47 49 46 41 35 31
60 62 58 58 57 54 49 48 52 53 53 53 48 48 52 49 53 54 54 39 10 3 9 18 14 7 18 16 29 42 48 45 52 49 45 41 35 33
44 52 57 58 58 57 58 57 55 58 59 55 52 51 46 50 53 49 35 14 7 14 17 16 17 19 25 25 34 39 42 42 52 48 43 41 40 36
47 54 58 53 51 53 52 52 52 53 52 50 45 45 47 50 46 33 20 15 17 23 18 19 23 32 39 28 36 41 41 42 47 43 40 34 38 35
55 54 50 48 47 47 49 49 47 46 45 43 45 46 46 46 36 30 23 19 24 30 24 21 33 39 33 29 45 48 46 43 39 46 40 29 24 33
56 52 46 44 44 46 46 45 45 43 43 45 44 45 42 38 34 33 28 27 31 31 26 34 34 35 33 33 40 55 48 47 43 43 42 45 39 29
53 49 44 48 48 48 47 48 47 45 44 43 43 42 39 37 35 33 30 31 37 40 38 45 37 38 45 43 39 47 52 45 37 35 36 36 33 30
58 54 52 51 50 47 43 40 43 43 43 45 43 41 39 39 39 35 33 36 41 35 39 44 43 43 47 35 30 34 45 47 42 36 35 33 30 22
61 55 53 54 48 43 40 39 42 43 44 44 43 41 39 41 41 38 33 36 40 33 39 42 46 50 37 34 31 29 35 41 47 46 48 40 35 30
Wind_Direction_850mb
262 259 265 268 271 272 276 283 289 298 305 290 305 313 315 309 298 294 291 293 285 279 277 279 275 273 269 268 265 262 262 265 269 283 300 309 300 296
264 266 265 267 274 275 271 276 283 285 283 291 294 305 306 303 300 297 293 288 285 281 277 274 270 269 271 269 266 261 256 258 263 269 283 291 291 293
261 268 271 272 270 272 273 277 282 286 286 290 293 298 296 296 295 295 293 292 291 288 283 277 273 267 264 261 256 256 255 254 258 261 267 279 277 269
262 267 271 274 275 274 274 278 282 286 287 290 292 294 297 300 299 297 295 294 293 291 290 284 277 272 264 260 260 256 251 250 248 253 254 255 264 256
257 263 270 272 268 269 275 276 279 280 283 284 289 291 293 297 301 302 302 302 300 301 298 293 286 279 274 267 259 254 251 244 238 243 255 249 243 245
253 258 263 264 264 265 269 274 277 281 285 286 288 291 294 298 296 300 302 305 303 304 305 303 294 283 268 263 262 253 245 241 240 236 264 248 234 225
253 256 258 257 260 264 269 273 278 282 286 285 286 289 289 291 292 296 296 305 306 309 311 312 305 302 295 278 263 258 252 238 231 233 253 258 234 215
256 257 259 261 259 261 264 267 273 281 284 286 285 283 290 294 297 298 296 299 303 310 307 312 312 318 317 307 297 280 261 249 223 221 241 259 221 207
258 260 261 262 263 264 266 269 271 273 276 280 281 283 290 295 305 302 304 304 305 308 310 311 318 316 320 314 309 298 285 241 203 216 228 207 203 201
259 261 261 262 263 266 269 272 274 276 275 274 278 286 291 298 293 297 301 301 303 307 315 308 322 322 322 322 311 309 283 207 190 214 202 199 200 196
259 260 262 263 262 264 267 270 273 275 277 278 280 282 285 283 286 292 296 304 307 309 317 306 323 314 318 319 308 279 183 165 195 212 192 191 196 190
255 256 257 259 262 264 264 267 269 272 278 281 282 276 270 275 279 288 294 296 304 311 313 317 305 326 335 91 115 151 177 225 163 177 184 196 185 189
253 255 256 259 260 260 260 260 264 274 273 270 270 276 282 281 282 283 290 293 298 301 308 307 315 323 192 169 172 182 201 165 173 175 187 181 184 197
251 255 257 258 258 256 255 258 260 262 258 260 267 274 280 289 297 296 295 292 296 293 295 294 302 319 175 159 163 165 161 164 171 176 175 176 188 201
250 254 257 258 255 253 251 254 254 253 258 263 271 279 288 285 289 290 293 300 306 305 266 260 81 164 206 192 188 171 161 165 168 175 177 187 196 206
247 251 255 257 257 257 255 248 250 253 255 263 267 268 277 282 286 291 297 298 291 202 158 153 162 203 182 164 171 169 175 165 175 180 186 191 201 215
251 250 250 252 255 257 259 260 256 257 256 260 263 267 270 276 282 289 286 240 176 176 177 183 185 174 161 161 162 165 166 177 180 193 196 201 208 217
241 245 250 253 258 261 260 259 256 253 253 253 251 257 265 272 277 272 234 213 189 187 187 201 188 163 164 178 173 173 173 185 198 195 202 211 219 225
236 244 253 259 260 259 261 257 253 250 246 242 248 253 261 266 259 244 222 210 203 200 210 198 184 173 165 167 187 190 193 196 200 204 206 207 219 231
235 241 246 253 259 261 257 254 252 249 243 247 244 253 256 250 245 224 224 223 206 203 199 193 185 185 185 184 179 193 200 204 209 210 211 218 224 243
241 244 249 257 262 262 259 254 251 248 244 238 246 249 241 241 227 219 234 218 205 203 200 194 194 192 191 191 183 195 201 210 217 231 230 218 225 238
241 242 244 250 255 257 255 247 241 237 236 244 243 237 239 236 221 225 221 206 198 205 204 195 196 196 199 192 191 195 210 215 214 214 213 219 231 238
234 240 245 248 246 243 247 245 244 245 243 237 236 238 238 232 218 217 216 210 202 188 184 193 195 195 195 195 197 199 207 214 213 207 210 218 226 240